Location: Augirein
(42.9320°N, 0.9181°E)
Time: 00:39:20
(UTC+00:00)

Cosmos 540 Rocket - Pass Details

Date: 20 June 2021
Orbit: 739 x 754 km, 74.1° (Epoch: 04 August)

Event Time Altitude Azimuth Distance (km) Brightness Sun altitude
Exits shadow 01:54:59 26° 249° (WSW) 1,435 4.5 -18.4°
Maximum altitude 01:57:10 38° 297° (WNW) 1,118 4.3 -18.2°
Drops below altitude 10° 02:01:56 10° 6° (N) 2,260 6.9 -17.7°
Sets 02:04:28 0° 14° (NNE) 3,189 8.2 -17.5°
